�������l�o���
Date,Time,MP-1(��Sv/h),MP-2(��Sv/h),MP-3(��Sv/h),MP-4(��Sv/h),MP-5(��Sv/h),MP-6(��Sv/h),MP-7(��Sv/h),MP-8(��Sv/h),����,����(m/s),���J
2023/02/28,00:00,0.564,0.824,0.502,1.054,0.732,0.321,0.581,0.553,��,3.4,��
2023/02/28,00:10,0.566,0.823,0.503,1.051,0.734,0.322,0.580,0.553,���쐼,4.8,��
2023/02/28,00:20,0.564,0.826,0.503,1.050,0.734,0.322,0.581,0.554,���쐼,3.9,��
2023/02/28,00:30,0.565,0.826,0.503,1.053,0.734,0.322,0.581,0.553,���쐼,3.9,��
2023/02/28,00:40,0.564,0.825,0.503,1.052,0.734,0.322,0.579,0.554,���쐼,5.3,��
2023/02/28,00:50,0.567,0.824,0.502,1.053,0.734,0.323,0.581,0.554,��,3.8,��
2023/02/28,01:00,0.564,0.825,0.502,1.051,0.734,0.322,0.581,0.553,���쐼,3.7,��
2023/02/28,01:10,0.566,0.825,0.503,1.051,0.732,0.323,0.580,0.553,���쐼,6.0,��
2023/02/28,01:20,0.567,0.826,0.505,1.053,0.733,0.321,0.581,0.553,�쐼,5.8,��
2023/02/28,01:30,0.566,0.822,0.504,1.051,0.733,0.321,0.582,0.553,�쐼,6.4,��
2023/02/28,01:40,0.566,0.825,0.503,1.052,0.732,0.323,0.581,0.555,���쐼,8.1,��
2023/02/28,01:50,0.567,0.824,0.503,1.053,0.733,0.323,0.581,0.555,�쐼,8.6,��
2023/02/28,02:00,0.566,0.823,0.503,1.051,0.732,0.324,0.583,0.555,�쐼,9.3,��
2023/02/28,02:10,0.566,0.825,0.505,1.054,0.734,0.322,0.583,0.553,�쐼,8.1,��
2023/02/28,02:20,0.565,0.824,0.504,1.054,0.734,0.321,0.582,0.555,�쐼,7.1,��
2023/02/28,02:30,0.567,0.825,0.502,1.053,0.732,0.323,0.581,0.554,�쐼,6.6,��
2023/02/28,02:40,0.568,0.824,0.504,1.052,0.733,0.323,0.584,0.554,�쐼,5.8,��
2023/02/28,02:50,0.567,0.823,0.504,1.054,0.731,0.323,0.583,0.554,�쐼,7.8,��
2023/02/28,03:00,0.564,0.825,0.503,1.052,0.734,0.321,0.583,0.554,�쐼,5.5,��
2023/02/28,03:10,0.567,0.824,0.503,1.054,0.732,0.321,0.583,0.553,��쐼,6.9,��
2023/02/28,03:20,0.567,0.825,0.503,1.052,0.733,0.324,0.582,0.553,�쐼,6.6,��
2023/02/28,03:30,0.567,0.823,0.503,1.052,0.732,0.324,0.582,0.555,�쐼,4.4,��
2023/02/28,03:40,0.566,0.822,0.502,1.051,0.734,0.323,0.583,0.554,�쐼,4.0,��
2023/02/28,03:50,0.566,0.823,0.504,1.051,0.733,0.323,0.581,0.554,�쐼,4.6,��
2023/02/28,04:00,0.566,0.823,0.501,1.052,0.732,0.324,0.582,0.555,�쐼,4.7,��
2023/02/28,04:10,0.564,0.823,0.504,1.055,0.733,0.322,0.582,0.555,�쐼,4.8,��
2023/02/28,04:20,0.566,0.823,0.502,1.052,0.733,0.323,0.583,0.553,���쐼,4.3,��
2023/02/28,04:30,0.567,0.824,0.503,1.051,0.732,0.322,0.581,0.554,�쐼,4.1,��
2023/02/28,04:40,0.568,0.822,0.503,1.051,0.731,0.323,0.581,0.555,�쐼,5.3,��
2023/02/28,04:50,0.567,0.823,0.502,1.051,0.732,0.322,0.582,0.554,�쐼,6.1,��
2023/02/28,05:00,0.565,0.827,0.502,1.051,0.733,0.324,0.583,0.554,�쐼,5.7,��
2023/02/28,05:10,0.566,0.822,0.504,1.052,0.733,0.323,0.581,0.554,�쐼,4.9,��
2023/02/28,05:20,0.565,0.822,0.503,1.050,0.732,0.322,0.580,0.553,�쐼,3.5,��
2023/02/28,05:30,0.567,0.825,0.502,1.054,0.731,0.322,0.581,0.555,���쐼,2.8,��
2023/02/28,05:40,0.566,0.826,0.504,1.051,0.732,0.323,0.582,0.555,���쐼,2.9,��
2023/02/28,05:50,0.568,0.823,0.503,1.051,0.733,0.322,0.582,0.554,���쐼,2.6,��
2023/02/28,06:00,0.568,0.823,0.504,1.053,0.732,0.323,0.581,0.554,���쐼,2.6,��
2023/02/28,06:10,0.565,0.824,0.502,1.052,0.731,0.323,0.582,0.555,�쐼,1.5,��
2023/02/28,06:20,0.569,0.823,0.502,1.053,0.733,0.322,0.583,0.554,�쐼,2.6,��
2023/02/28,06:30,0.567,0.822,0.504,1.052,0.731,0.324,0.581,0.555,��쐼,3.7,��
2023/02/28,06:40,0.566,0.823,0.503,1.051,0.735,0.323,0.583,0.555,�쐼,2.6,��
2023/02/28,06:50,0.566,0.823,0.503,1.050,0.733,0.323,0.583,0.554,��쐼,2.5,��
2023/02/28,07:00,0.566,0.824,0.502,1.050,0.732,0.323,0.583,0.555,��쐼,3.2,��
2023/02/28,07:10,0.568,0.823,0.504,1.052,0.734,0.325,0.582,0.554,��쐼,3.8,��
2023/02/28,07:20,0.569,0.823,0.502,1.053,0.732,0.323,0.581,0.555,�쐼,3.8,��
2023/02/28,07:30,0.569,0.825,0.502,1.054,0.733,0.323,0.583,0.552,��쐼,4.4,��
2023/02/28,07:40,0.568,0.824,0.504,1.053,0.733,0.323,0.582,0.553,�쐼,4.6,��
2023/02/28,07:50,0.568,0.825,0.505,1.054,0.733,0.322,0.583,0.553,�쐼,5.0,��
2023/02/28,08:00,0.569,0.827,0.502,1.056,0.733,0.323,0.583,0.552,�쐼,4.8,��
2023/02/28,08:10,0.568,0.822,0.504,1.051,0.733,0.325,0.584,0.553,�쐼,4.2,��
2023/02/28,08:20,0.570,0.823,0.505,1.055,0.731,0.324,0.584,0.553,���쐼,4.7,��
2023/02/28,08:30,0.571,0.822,0.505,1.053,0.730,0.322,0.585,0.553,���쐼,3.5,��
2023/02/28,08:40,0.569,0.823,0.504,1.055,0.734,0.323,0.585,0.553,�쐼,2.2,��
2023/02/28,08:50,0.569,0.824,0.504,1.053,0.731,0.324,0.584,0.553,��쐼,1.5,��
2023/02/28,09:00,0.570,0.823,0.504,1.054,0.733,0.324,0.584,0.555,��쓌,3.1,��
2023/02/28,09:10,0.570,0.821,0.505,1.054,0.734,0.325,0.585,0.555,��쓌,3.3,��
2023/02/28,09:20,0.572,0.824,0.505,1.052,0.733,0.324,0.583,0.554,��쓌,3.5,��
2023/02/28,09:30,0.570,0.821,0.506,1.053,0.734,0.324,0.582,0.556,��쓌,3.2,��
2023/02/28,09:40,0.572,0.822,0.506,1.055,0.734,0.324,0.583,0.555,�쓌,3.6,��
2023/02/28,09:50,0.570,0.822,0.506,1.055,0.733,0.325,0.582,0.555,�쓌,5.0,��
2023/02/28,10:00,0.570,0.822,0.506,1.053,0.734,0.324,0.581,0.554,��쓌,5.3,��
2023/02/28,10:10,0.569,0.823,0.508,1.054,0.735,0.324,0.583,0.556,��쓌,5.5,��
2023/02/28,10:20,0.570,0.823,0.505,1.054,0.734,0.323,0.582,0.555,��쓌,6.4,��
2023/02/28,10:30,0.569,0.823,0.505,1.055,0.735,0.323,0.584,0.555,��쓌,5.8,��
2023/02/28,10:40,0.571,0.823,0.506,1.055,0.734,0.323,0.583,0.554,��쓌,4.8,��
2023/02/28,10:50,0.569,0.823,0.506,1.054,0.733,0.323,0.585,0.554,��쓌,4.7,��
2023/02/28,11:00,0.570,0.823,0.505,1.054,0.734,0.323,0.583,0.553,��쓌,3.8,��
2023/02/28,11:10,0.570,0.822,0.506,1.054,0.734,0.322,0.584,0.552,��쓌,4.5,��
2023/02/28,11:20,0.568,0.823,0.506,1.053,0.735,0.323,0.583,0.551,��,5.0,��
2023/02/28,11:30,0.569,0.824,0.505,1.057,0.732,0.324,0.583,0.552,��쓌,6.8,��
2023/02/28,11:40,0.569,0.826,0.504,1.054,0.734,0.323,0.582,-,��쓌,8.3,��
2023/02/28,11:50,0.570,0.826,0.505,1.055,0.734,0.323,0.584,-,��쓌,9.2,��
2023/02/28,12:00,0.570,0.825,0.506,1.056,0.734,0.322,0.583,-,��쓌,8.3,��
2023/02/28,12:10,0.570,0.825,0.504,1.055,0.734,0.323,0.584,-,��쓌,7.6,��
2023/02/28,12:20,0.570,0.826,0.504,1.056,0.734,0.324,0.584,-,��쓌,7.0,��
2023/02/28,12:30,0.569,0.826,0.503,1.054,0.733,0.323,0.583,-,��쓌,7.7,��
2023/02/28,12:40,0.571,0.825,0.504,1.056,0.735,0.324,0.584,-,��쓌,10.0,��
2023/02/28,12:50,0.571,0.823,0.506,1.056,0.733,0.325,0.583,-,��쓌,9.5,��
2023/02/28,13:00,0.571,0.825,0.505,1.056,0.733,0.324,0.584,-,��쓌,6.8,��
2023/02/28,13:10,0.571,0.823,0.504,1.054,0.734,0.325,0.585,-,��쓌,9.0,��
2023/02/28,13:20,0.572,0.822,0.504,1.054,0.735,0.324,0.583,-,��쓌,9.7,��
2023/02/28,13:30,0.571,0.822,0.505,1.056,0.735,0.324,0.585,-,��쓌,10.3,��
2023/02/28,13:40,0.568,0.823,0.506,1.055,0.735,0.325,0.585,-,��쓌,9.6,��
2023/02/28,13:50,0.570,0.824,0.506,1.055,0.735,0.324,0.584,-,��쓌,8.9,��
2023/02/28,14:00,0.571,0.821,0.506,1.055,0.734,0.324,0.584,-,��쓌,9.6,��
2023/02/28,14:10,0.572,0.822,0.505,1.055,0.735,0.323,0.585,-,��쓌,10.2,��
2023/02/28,14:20,0.571,0.825,0.504,1.056,0.735,0.324,0.584,-,��쓌,11.0,��
2023/02/28,14:30,0.571,0.824,0.504,1.055,0.734,0.325,0.584,0.553,��쓌,10.6,��
2023/02/28,14:40,0.572,0.826,0.504,1.056,0.737,0.324,0.585,0.552,��쓌,9.5,��
2023/02/28,14:50,0.572,0.824,0.506,1.058,0.735,0.325,0.585,0.554,��쓌,10.5,��
2023/02/28,15:00,0.572,0.826,0.505,1.055,0.735,0.325,0.584,0.553,��쓌,8.7,��
2023/02/28,15:10,0.573,0.825,0.505,1.056,0.736,0.323,0.584,0.554,��쓌,8.2,��
2023/02/28,15:20,0.572,0.825,0.505,1.057,0.736,0.324,0.584,0.554,��쓌,7.9,��
2023/02/28,15:30,0.572,0.826,0.506,1.059,0.736,0.323,0.585,0.555,��쓌,7.8,��
2023/02/28,15:40,0.571,0.825,0.505,1.057,0.734,0.324,0.583,0.553,��쓌,8.8,��
2023/02/28,15:50,0.571,0.826,0.506,1.056,0.734,0.324,0.583,0.553,��쓌,9.4,��
2023/02/28,16:00,0.571,0.825,0.506,1.057,0.736,0.325,0.584,0.554,��쓌,9.0,��
2023/02/28,16:10,0.571,0.826,0.507,1.056,0.734,0.326,0.584,0.554,��쓌,8.2,��
2023/02/28,16:20,0.570,0.826,0.506,1.058,0.736,0.325,0.584,0.555,��쓌,6.6,��
2023/02/28,16:30,0.573,0.829,0.506,1.058,0.736,0.325,0.584,0.556,��,4.5,��
2023/02/28,16:40,0.569,0.825,0.506,1.056,0.734,0.326,0.584,0.555,��,2.9,��
2023/02/28,16:50,0.571,0.826,0.506,1.056,0.735,0.326,0.584,0.557,��,1.5,��
2023/02/28,17:00,0.571,0.826,0.506,1.055,0.736,0.324,0.586,0.557,��,2.6,��
2023/02/28,17:10,0.570,0.828,0.506,1.057,0.734,0.326,0.586,0.557,��쐼,2.2,��
2023/02/28,17:20,0.570,0.826,0.507,1.054,0.735,0.325,0.586,0.556,�쐼,2.0,��
2023/02/28,17:30,0.571,0.827,0.506,1.053,0.736,0.326,0.585,0.556,���k��,2.3,��
2023/02/28,17:40,0.573,0.828,0.507,1.053,0.737,0.326,0.585,0.557,�k��,3.7,��
2023/02/28,17:50,0.572,0.828,0.508,1.056,0.737,0.326,0.586,0.557,���k��,4.8,��
2023/02/28,18:00,0.573,0.829,0.507,1.056,0.736,0.326,0.585,0.556,���k��,5.1,��
2023/02/28,18:10,0.572,0.825,0.508,1.056,0.735,0.326,0.586,0.557,���k��,4.6,��
2023/02/28,18:20,0.572,0.828,0.507,1.054,0.736,0.325,0.585,0.557,���k��,5.4,��
2023/02/28,18:30,0.574,0.827,0.506,1.057,0.737,0.326,0.586,0.556,��,5.5,��
2023/02/28,18:40,0.571,0.829,0.508,1.057,0.734,0.326,0.584,0.555,���k��,5.8,��
2023/02/28,18:50,0.573,0.828,0.506,1.057,0.736,0.325,0.586,0.556,���k��,5.9,��
2023/02/28,19:00,0.574,0.827,0.506,1.057,0.736,0.327,0.587,0.554,��,4.9,��
2023/02/28,19:10,0.572,0.826,0.507,1.056,0.736,0.325,0.586,0.556,��,6.9,��
2023/02/28,19:20,0.572,0.827,0.508,1.055,0.738,0.326,0.585,0.555,��,5.5,��
2023/02/28,19:30,0.574,0.827,0.508,1.054,0.736,0.326,0.586,0.555,���쐼,4.0,��
2023/02/28,19:40,0.572,0.829,0.508,1.056,0.737,0.324,0.585,0.555,���쐼,4.1,��
2023/02/28,19:50,0.575,0.826,0.507,1.056,0.737,0.325,0.587,0.556,���쐼,4.4,��
2023/02/28,20:00,0.574,0.829,0.507,1.055,0.736,0.325,0.584,0.555,���쐼,5.9,��
2023/02/28,20:10,0.571,0.828,0.509,1.057,0.737,0.325,0.585,0.556,��,6.0,��
2023/02/28,20:20,0.573,0.826,0.507,1.059,0.737,0.324,0.585,0.556,��,5.6,��
2023/02/28,20:30,0.572,0.828,0.507,1.057,0.734,0.325,0.586,0.556,��,4.5,��
2023/02/28,20:40,0.571,0.827,0.506,1.054,0.736,0.326,0.587,0.556,���쐼,2.9,��
2023/02/28,20:50,0.571,0.827,0.505,1.056,0.735,0.325,0.585,0.555,�쐼,2.8,��
2023/02/28,21:00,0.573,0.826,0.507,1.055,0.736,0.325,0.585,0.555,���쐼,5.2,��
2023/02/28,21:10,0.573,0.827,0.508,1.057,0.736,0.326,0.585,0.555,��,5.9,��
2023/02/28,21:20,0.571,0.829,0.506,1.056,0.736,0.324,0.584,0.556,��,5.6,��
2023/02/28,21:30,0.571,0.827,0.505,1.058,0.736,0.325,0.584,0.557,��,4.3,��
2023/02/28,21:40,0.572,0.827,0.508,1.055,0.738,0.326,0.585,0.555,��,4.5,��
2023/02/28,21:50,0.573,0.829,0.508,1.056,0.737,0.324,0.586,0.555,��,4.0,��
2023/02/28,22:00,0.573,0.827,0.508,1.058,0.735,0.325,0.585,0.556,��,3.9,��
2023/02/28,22:10,0.572,0.827,0.507,1.057,0.736,0.326,0.584,0.556,��,4.3,��
2023/02/28,22:20,0.573,0.828,0.507,1.057,0.736,0.325,0.583,0.555,��,4.6,��
2023/02/28,22:30,0.572,0.829,0.507,1.058,0.735,0.325,0.585,0.554,��,4.3,��
2023/02/28,22:40,0.572,0.827,0.506,1.058,0.736,0.326,0.584,0.554,���쐼,5.0,��
2023/02/28,22:50,0.573,0.829,0.507,1.058,0.736,0.324,0.583,0.555,���쐼,4.7,��
2023/02/28,23:00,0.573,0.827,0.505,1.056,0.736,0.326,0.586,0.556,���쐼,2.6,��
2023/02/28,23:10,0.571,0.828,0.506,1.055,0.737,0.326,0.584,0.556,���쐼,3.4,��
2023/02/28,23:20,0.573,0.828,0.507,1.056,0.737,0.325,0.585,0.555,��,3.7,��
2023/02/28,23:30,0.572,0.827,0.506,1.055,0.737,0.325,0.586,0.554,���쐼,3.8,��
2023/02/28,23:40,0.572,0.826,0.506,1.056,0.735,0.325,0.585,0.555,���쐼,3.1,��
2023/02/28,23:50,0.572,0.830,0.507,1.056,0.737,0.326,0.586,0.555,���쐼,2.9,��
